Flag for Germany Weather past 2 weeks in Velbert, North Rhine-Westphalia, Germany

Now
55 °F

Clear.


Feels Like: 55 °F
Forecast: 68 / 86 °F
Wind: 1 mph from Southeast

Location: Essen

Current Time: Aug 29, 2015 at 6:14:51 AM

Latest Report: Aug 29, 2015 at 5:00 AM


Visibility: 14 mi

Pressure: 30.20 "Hg

Humidity: 94%

Dew point: 53 °F

Location of VelbertLocation

Historic Weather in Velbert — Graph

°F

Velbert temperature yesterday

Maximum temperature yesterday: 68 °F (at 6:00 PM)
Minimum temperature yesterday: 54 °F (at 7:00 AM)
Average temperature yesterday: 60 °F

Past Weeks' High & Low Weather Summary

 TemperatureHumidityPressure
High78 °F (Aug 14, 5:00 PM)100% (Aug 16, 7:00 AM)30.25 "Hg (Aug 16, 7:00 AM)
Low51 °F (Aug 19, 4:00 AM)35% (Aug 23, 3:00 PM)29.53 "Hg (Aug 24, 5:00 PM)
Average64 °F76%29.94 "Hg
* Reported Aug 14 5:00 AM — Aug 29 5:00 AM, Velbert, Weather by CustomWeather, © 2015

Note: Actual official high and low records may vary slightly from our data, if they occured in-between our weather recording intervals... More about our weather records

Advertising

Velbert weather history for previous 24 hours

 ConditionsComfort  
Time TempWeatherWind HumidityBarometerVisibility
5:00 AM
Sat, Aug 29
55 °FClear.1 mph94%30.20 "Hg14 mi
4:00 AM55 °FClear.1 mph94%30.19 "Hg9 mi
3:00 AM55 °FClear.2 mph93%30.19 "Hg10 mi
2:00 AM57 °FClear.1 mph89%30.19 "Hg14 mi
1:00 AM57 °FClear.1 mph88%30.19 "Hg25 mi
11:00 PM
Fri, Aug 28
58 °FPassing clouds.1 mph85%30.18 "Hg28 mi
10:00 PM62 °FPassing clouds.2 mph73%30.16 "Hg43 mi
9:00 PM63 °FPassing clouds.2 mph70%30.14 "Hg34 mi
8:00 PM64 °FPartly sunny.1 mph72%30.12 "Hg43 mi
7:00 PM66 °FOvercast.2 mph65%30.11 "Hg43 mi
6:00 PM68 °FPartly sunny.2 mph60%30.10 "Hg37 mi
5:00 PM67 °FPassing clouds.3 mph64%30.10 "Hg31 mi
4:00 PM67 °FScattered clouds.3 mph59%30.09 "Hg43 mi
3:00 PM66 °FPartly sunny.3 mph67%30.09 "Hg43 mi
2:00 PM66 °FPassing clouds.5 mph61%30.07 "Hg28 mi
1:00 PM63 °FPassing clouds.3 mph74%30.06 "Hg34 mi
12:00 PM63 °FOvercast.3 mph76%30.06 "Hg28 mi
11:00 AM60 °FPartly sunny.3 mph82%30.05 "Hg25 mi
10:00 AM58 °FPartly sunny.2 mph87%30.03 "Hg14 mi
9:00 AM57 °FLow clouds.2 mph95%30.03 "Hg5 mi
8:00 AM55 °FFog.3 mph99%30.01 "Hg3 mi
7:00 AM54 °FFog.3 mph100%29.99 "Hg2 mi
6:00 AM55 °FFog.3 mph99%29.98 "Hg4 mi
Weather by CustomWeather, © 2015

See weather overviewHow to use our weather pages